Regional Weather Roundup
Issued by NWS

Home | Current Version | Previous Version | Text Only | Print | Product List | Glossary On
Versions: 1 2 3 4 5 6 7 8 9 10 11 12 13 14 15 16 17 18 19 20 21 22 23 24 25 26 27 28 29 30 31 32 33 34 35 36 37 38 39 40 41 42 43 44 45 46 47 48 49 50
000
ASUS43 KLMK 310410
RWRKY
KENTUCKY REGIONAL WEATHER ROUNDUP
NATIONAL WEATHER SERVICE LOUISVILLE KY
1200 AM EDT THU JUL 31 2014

NOTE "FAIR" INDICATES FEW OR NO CLOUDS BELOW 12,000 FEET
WITH NO SIGNIFICANT WEATHER AND/OR OBSTRUCTIONS TO VISIBILITY.

KYZ001>023-026-027-061>063-070>075-310500-
WESTERN AND SOUTH CENTRAL KENTUCKY

CITY           SKY/WX    TMP DP  RH WIND       PRES   REMARKS
PADUCAH        MOCLDY    65  61  87 CALM      30.07S
HENDERSON      MOCLDY    63  57  82 SW3       30.07S
OWENSBORO      MOCLDY    64  60  87 CALM      30.08S
HOPKINSVILLE   MOCLDY    69  56  63 SW2       30.08S
BOWLING GREEN  PTCLDY    67  58  72 CALM      30.08S
GLASGOW        MOCLDY    64  58  83 CALM      30.09S
$$

KYZ024-025-028>034-038-045-046-053-310500-
NORTH CENTRAL KENTUCKY

CITY           SKY/WX    TMP DP  RH WIND       PRES   REMARKS
LOUISVILLE/SDF MOCLDY    72  59  63 CALM      30.07S
LOUISVILLE/LOU PTCLDY    68  59  73 S3        30.08S
FORT KNOX      PTCLDY    63  60  91 W2        30.07S
$$

KYZ035>037-039>044-047>052-055>060-089>105-310500-
NORTHEAST KENTUCKY

CITY           SKY/WX    TMP DP  RH WIND       PRES   REMARKS
LEXINGTON      CLEAR     65  57  75 S3        30.09S
COVINGTON      CLOUDY    68  60  75 CALM      30.07S
FRANKFORT      CLEAR     63  59  87 CALM      30.08R
$$

KYZ054-064>069-076>088-106>120-310500-
SOUTHEAST KENTUCKY

CITY           SKY/WX    TMP DP  RH WIND       PRES   REMARKS
JACKSON        CLEAR     66  58  75 CALM      30.11S
LONDON         MOCLDY    64  60  87 CALM      30.11F
SOMERSET       CLEAR     63  63 100 CALM      30.11S
MIDDLESBORO    PTCLDY    61  59  93 CALM      30.13S
MONTICELLO     PTCLDY    60  59  97 CALM      30.12S
$$




USA.gov is the U.S. government's official web portal to all federal, state and local government web resources and services.